,,,PA_Meas_PMT16A,,PR_Meas_QMR101_102,,RH_Meas_QMH101,,SR_Meas_QMS101,,TA_Meas_QMH101,,GenWind,,GenWind,
date,time,status,PA,status,PR,status,RH,status,SR,status,TA,status,DirAvg,status,SpdAvg,
2014-02-22, 00:00:04,VALID,1011.8,VALID,0,VALID,83.807,VALID,0,VALID,24.3547,VALID,341,VALID,0,
2014-02-22, 00:01:04,VALID,1011.77,VALID,0,VALID,83.9901,VALID,0,VALID,24.3158,VALID,341,VALID,0,
2014-02-22, 00:02:04,VALID,1011.76,VALID,0,VALID,84.0968,VALID,0,VALID,24.2981,VALID,341,VALID,0,
2014-02-22, 00:03:04,VALID,1011.75,VALID,0,VALID,84.1731,VALID,0,VALID,24.2786,VALID,341,VALID,0,
2014-02-22, 00:04:04,VALID,1011.76,VALID,0,VALID,84.3485,VALID,0.112112,VALID,24.2786,VALID,341,VALID,0,
2014-02-22, 00:05:04,VALID,1011.76,VALID,0,VALID,84.3561,VALID,0,VALID,24.2183,VALID,341,VALID,0,
2014-02-22, 00:06:04,VALID,1011.79,VALID,0,VALID,84.5162,VALID,0,VALID,24.2202,VALID,341,VALID,0,
2014-02-22, 00:07:04,VALID,1011.78,VALID,0,VALID,84.7145,VALID,0,VALID,24.1793,VALID,341,VALID,0,
2014-02-22, 00:08:04,VALID,1011.79,VALID,0,VALID,84.684,VALID,0,VALID,24.1617,VALID,341,VALID,0,
2014-02-22, 00:09:04,VALID,1011.8,VALID,0,VALID,84.989,VALID,0.112112,VALID,24.1209,VALID,341,VALID,0,
2014-02-22, 00:10:04,VALID,1011.81,VALID,0,VALID,85.1034,VALID,0,VALID,24.1032,VALID,341,VALID,0,
2014-02-22, 00:11:04,VALID,1011.81,VALID,0,VALID,85.3322,VALID,0,VALID,24.0643,VALID,341,VALID,0,
2014-02-22, 00:12:04,VALID,1011.8,VALID,0,VALID,85.4771,VALID,0,VALID,24.0235,VALID,341,VALID,0,
2014-02-22, 00:13:04,VALID,1011.8,VALID,0,VALID,85.6677,VALID,0,VALID,23.9845,VALID,341,VALID,0,
2014-02-22, 00:14:04,VALID,1011.77,VALID,0,VALID,85.7516,VALID,0,VALID,24.0058,VALID,341,VALID,0,
2014-02-22, 00:15:04,VALID,1011.79,VALID,0,VALID,85.9422,VALID,0,VALID,23.9863,VALID,341,VALID,0,
2014-02-22, 00:16:04,VALID,1011.78,VALID,0,VALID,86.293,VALID,0,VALID,23.9863,VALID,341,VALID,0,
2014-02-22, 00:17:04,VALID,1011.74,VALID,0,VALID,86.4684,VALID,0,VALID,23.9881,VALID,341,VALID,0,
2014-02-22, 00:18:04,VALID,1011.72,VALID,0,VALID,86.537,VALID,0,VALID,23.9668,VALID,341,VALID,0,
2014-02-22, 00:19:04,VALID,1011.73,VALID,0,VALID,86.5828,VALID,0,VALID,23.926,VALID,341,VALID,0,
2014-02-22, 00:20:04,VALID,1011.72,VALID,0,VALID,86.6514,VALID,0,VALID,23.926,VALID,341,VALID,0,
2014-02-22, 00:21:04,VALID,1011.74,VALID,0,VALID,86.6438,VALID,0,VALID,23.9065,VALID,341,VALID,0,
2014-02-22, 00:22:04,VALID,1011.74,VALID,0,VALID,86.5904,VALID,0,VALID,23.8871,VALID,341,VALID,0,
2014-02-22, 00:23:04,VALID,1011.75,VALID,0,VALID,86.5294,VALID,0,VALID,23.8676,VALID,341,VALID,0,
2014-02-22, 00:24:04,VALID,1011.72,VALID,0,VALID,86.476,VALID,0,VALID,23.8481,VALID,341,VALID,0,
2014-02-22, 00:25:04,VALID,1011.75,VALID,0,VALID,86.6286,VALID,0,VALID,23.8286,VALID,341,VALID,0,
2014-02-22, 00:26:04,VALID,1011.72,VALID,0,VALID,86.7353,VALID,0,VALID,23.8304,VALID,341,VALID,0,
2014-02-22, 00:27:04,VALID,1011.71,VALID,0,VALID,86.7582,VALID,0.112112,VALID,23.7896,VALID,341,VALID,0,
2014-02-22, 00:28:04,VALID,1011.65,VALID,0,VALID,86.8497,VALID,0,VALID,23.7701,VALID,341,VALID,0,
2014-02-22, 00:29:04,VALID,1011.6,VALID,0,VALID,86.7353,VALID,0,VALID,23.7507,VALID,341,VALID,0,
2014-02-22, 00:30:04,VALID,1011.59,VALID,0,VALID,86.8116,VALID,0,VALID,23.7312,VALID,341,VALID,0,
2014-02-22, 00:31:04,VALID,1011.55,VALID,0,VALID,87.0022,VALID,0,VALID,23.7117,VALID,341,VALID,0,
2014-02-22, 00:32:04,VALID,1011.51,VALID,0,VALID,87.1166,VALID,0,VALID,23.6727,VALID,341,VALID,0,
2014-02-22, 00:33:04,VALID,1011.46,VALID,0,VALID,87.414,VALID,0,VALID,23.6338,VALID,341,VALID,0,
2014-02-22, 00:34:04,VALID,1011.46,VALID,0,VALID,87.6047,VALID,0,VALID,23.6161,VALID,341,VALID,0,
2014-02-22, 00:35:04,VALID,1011.48,VALID,0,VALID,87.7267,VALID,0,VALID,23.5753,VALID,341,VALID,0,
2014-02-22, 00:36:04,VALID,1011.46,VALID,0,VALID,87.7724,VALID,0,VALID,23.5558,VALID,341,VALID,0,
2014-02-22, 00:37:04,VALID,1011.43,VALID,0,VALID,87.78,VALID,0,VALID,23.5558,VALID,341,VALID,0,
2014-02-22, 00:38:04,VALID,1011.43,VALID,0,VALID,87.9173,VALID,0,VALID,23.5558,VALID,341,VALID,0,
2014-02-22, 00:39:04,VALID,1011.45,VALID,0,VALID,87.9783,VALID,0,VALID,23.5558,VALID,341,VALID,0,
2014-02-22, 00:40:04,VALID,1011.44,VALID,0,VALID,87.9936,VALID,0,VALID,23.5576,VALID,341,VALID,0,
2014-02-22, 00:41:04,VALID,1011.4,VALID,0,VALID,88.0698,VALID,0,VALID,23.5576,VALID,341,VALID,0,
2014-02-22, 00:42:04,VALID,1011.4,VALID,0,VALID,88.0317,VALID,0,VALID,23.5169,VALID,341,VALID,0,
2014-02-22, 00:43:04,VALID,1011.37,VALID,0,VALID,88.1918,VALID,0,VALID,23.4779,VALID,341,VALID,0,
2014-02-22, 00:44:04,VALID,1011.37,VALID,0,VALID,88.5655,VALID,0,VALID,23.4797,VALID,341,VALID,0,
2014-02-22, 00:45:04,VALID,1011.34,VALID,0,VALID,88.8019,VALID,0,VALID,23.4389,VALID,341,VALID,0,
2014-02-22, 00:46:04,VALID,1011.32,VALID,0,VALID,88.9087,VALID,0,VALID,23.4602,VALID,341,VALID,0,
2014-02-22, 00:47:04,VALID,1011.3,VALID,0,VALID,88.9315,VALID,0.112112,VALID,23.4797,VALID,341,VALID,0,
2014-02-22, 00:48:04,VALID,1011.26,VALID,0,VALID,88.9849,VALID,0,VALID,23.4389,VALID,341,VALID,0,
2014-02-22, 00:49:04,VALID,1011.23,VALID,0,VALID,88.9849,VALID,0,VALID,23.4407,VALID,341,VALID,0,
2014-02-22, 00:50:04,VALID,1011.25,VALID,0,VALID,89.1222,VALID,0,VALID,23.4212,VALID,341,VALID,0,
2014-02-22, 00:51:04,VALID,1011.21,VALID,0,VALID,89.3967,VALID,0.112112,VALID,23.3805,VALID,341,VALID,0,
2014-02-22, 00:52:04,VALID,1011.21,VALID,0,VALID,89.5568,VALID,0,VALID,23.3415,VALID,341,VALID,0,
2014-02-22, 00:53:04,VALID,1011.16,VALID,0,VALID,89.961,VALID,0,VALID,23.322,VALID,341,VALID,0,
2014-02-22, 00:54:04,VALID,1011.16,VALID,0,VALID,90.9905,VALID,0.112112,VALID,23.322,VALID,341,VALID,0,
2014-02-22, 00:55:04,VALID,1011.16,VALID,0,VALID,91.6692,VALID,0.112112,VALID,23.3043,VALID,341,VALID,0,
2014-02-22, 00:56:04,VALID,1011.14,VALID,0,VALID,92.0733,VALID,0,VALID,23.2636,VALID,341,VALID,0,
2014-02-22, 00:57:04,VALID,1011.17,VALID,0,VALID,92.7139,VALID,0,VALID,23.2441,VALID,341,VALID,0,
2014-02-22, 00:58:04,VALID,1011.18,VALID,0,VALID,94.0637,VALID,0,VALID,23.2264,VALID,341,VALID,0,
2014-02-22, 00:59:04,VALID,1011.18,VALID,0,VALID,94.933,VALID,0,VALID,23.2051,VALID,341,VALID,0,
2014-02-22, 01:00:04,VALID,1011.21,VALID,0,VALID,95.5583,VALID,0.112112,VALID,23.1857,VALID,341,VALID,0,
2014-02-22, 01:01:04,VALID,1011.22,VALID,0,VALID,96.1379,VALID,0,VALID,23.1662,VALID,341,VALID,0,
2014-02-22, 01:02:04,VALID,1011.24,VALID,0,VALID,96.6412,VALID,0.112112,VALID,23.1662,VALID,341,VALID,0,
2014-02-22, 01:03:04,VALID,1011.22,VALID,0,VALID,97.2131,VALID,0.112112,VALID,23.1662,VALID,341,VALID,0,
2014-02-22, 01:04:04,VALID,1011.26,VALID,0,VALID,97.6401,VALID,0,VALID,23.1662,VALID,341,VALID,0,
2014-02-22, 01:05:04,VALID,1011.23,VALID,0,VALID,97.9757,VALID,0.112112,VALID,23.1662,VALID,341,VALID,0,
2014-02-22, 01:06:04,VALID,1011.23,VALID,0,VALID,98.1206,VALID,0,VALID,23.1662,VALID,341,VALID,0,
2014-02-22, 01:07:04,VALID,1011.22,VALID,0,VALID,98.2273,VALID,0.112112,VALID,23.1662,VALID,341,VALID,0,
2014-02-22, 01:08:04,VALID,1011.2,VALID,0,VALID,98.3646,VALID,0,VALID,23.1662,VALID,341,VALID,0,
2014-02-22, 01:09:04,VALID,1011.17,VALID,0,VALID,98.3188,VALID,0.112112,VALID,23.1467,VALID,341,VALID,0,
2014-02-22, 01:10:04,VALID,1011.16,VALID,0,VALID,98.4561,VALID,0,VALID,23.1679,VALID,341,VALID,0,
2014-02-22, 01:11:04,VALID,1011.16,VALID,0,VALID,98.2807,VALID,0.112112,VALID,23.1272,VALID,341,VALID,0,
2014-02-22, 01:12:04,VALID,1011.15,VALID,0,VALID,98.296,VALID,0,VALID,23.0883,VALID,341,VALID,0,
2014-02-22, 01:13:04,VALID,1011.11,VALID,0,VALID,98.5857,VALID,0,VALID,23.1077,VALID,341,VALID,0,
2014-02-22, 01:14:04,VALID,1011.12,VALID,0,VALID,98.7535,VALID,0,VALID,23.1095,VALID,341,VALID,0,
2014-02-22, 01:15:04,VALID,1011.08,VALID,0,VALID,98.8221,VALID,0,VALID,23.0883,VALID,341,VALID,0,
2014-02-22, 01:16:04,VALID,1011.11,VALID,0,VALID,98.9823,VALID,0,VALID,23.0688,VALID,341,VALID,0,
2014-02-22, 01:17:04,VALID,1011.09,VALID,0,VALID,98.8374,VALID,0,VALID,23.0493,VALID,341,VALID,0,
2014-02-22, 01:18:04,VALID,1011.1,VALID,0,VALID,98.8145,VALID,0,VALID,23.0298,VALID,341,VALID,0,
2014-02-22, 01:19:04,VALID,1011.11,VALID,0,VALID,99.0128,VALID,0.112112,VALID,23.0103,VALID,341,VALID,0,
2014-02-22, 01:20:04,VALID,1011.11,VALID,0,VALID,99.15,VALID,0,VALID,22.9714,VALID,341,VALID,0,
2014-02-22, 01:21:04,VALID,1011.09,VALID,0,VALID,99.3254,VALID,0,VALID,22.9714,VALID,341,VALID,0,
2014-02-22, 01:22:04,VALID,1011.05,VALID,0,VALID,99.4551,VALID,0,VALID,22.9324,VALID,341,VALID,0,
2014-02-22, 01:23:04,VALID,1011.05,VALID,0,VALID,99.9965,VALID,0,VALID,22.9519,VALID,341,VALID,0,
2014-02-22, 01:24:04,VALID,1011.03,VALID,0,VALID,100.462,VALID,0,VALID,22.9731,VALID,341,VALID,0,
2014-02-22, 01:25:04,VALID,1010.99,VALID,0,VALID,100.561,VALID,0,VALID,22.9324,VALID,341,VALID,0,
2014-02-22, 01:26:04,VALID,1010.95,VALID,0,VALID,100.706,VALID,0,VALID,22.9519,VALID,341,VALID,0,
2014-02-22, 01:27:04,VALID,1010.92,VALID,0,VALID,100.767,VALID,0.112112,VALID,22.9519,VALID,341,VALID,0,
2014-02-22, 01:28:04,VALID,1010.9,VALID,0,VALID,100.736,VALID,0,VALID,22.9519,VALID,341,VALID,0,
2014-02-22, 01:29:04,VALID,1010.88,VALID,0,VALID,100.736,VALID,0,VALID,22.9324,VALID,341,VALID,0,
2014-02-22, 01:30:04,VALID,1010.86,VALID,0,VALID,100.561,VALID,0.112112,VALID,22.9342,VALID,341,VALID,0,
2014-02-22, 01:31:04,VALID,1010.84,VALID,0,VALID,100.622,VALID,0,VALID,22.9129,VALID,341,VALID,0,
2014-02-22, 01:32:04,VALID,1010.81,VALID,0,VALID,100.683,VALID,0,VALID,22.9147,VALID,341,VALID,0,
2014-02-22, 01:33:04,VALID,1010.84,VALID,0,VALID,100.812,VALID,0,VALID,22.8935,VALID,341,VALID,0,
2014-02-22, 01:34:04,VALID,1010.82,VALID,0,VALID,101.034,VALID,0,VALID,22.8935,VALID,341,VALID,0,
2014-02-22, 01:35:04,VALID,1010.78,VALID,0,VALID,101.194,VALID,0,VALID,22.9147,VALID,341,VALID,0,
2014-02-22, 01:36:04,VALID,1010.78,VALID,0,VALID,101.171,VALID,0,VALID,22.874,VALID,341,VALID,0,
2014-02-22, 01:37:04,VALID,1010.74,VALID,0,VALID,101.087,VALID,0,VALID,22.8545,VALID,341,VALID,0,
2014-02-22, 01:38:04,VALID,1010.73,VALID,0,VALID,101.125,VALID,0,VALID,22.8562,VALID,341,VALID,0,
2014-02-22, 01:39:04,VALID,1010.7,VALID,0,VALID,101.186,VALID,0,VALID,22.8155,VALID,341,VALID,0,
2014-02-22, 01:40:04,VALID,1010.69,VALID,0,VALID,101.392,VALID,0.112112,VALID,22.8155,VALID,341,VALID,0,
2014-02-22, 01:41:04,VALID,1010.7,VALID,0,VALID,101.636,VALID,0,VALID,22.8173,VALID,341,VALID,0,
2014-02-22, 01:42:04,VALID,1010.69,VALID,0,VALID,101.735,VALID,0,VALID,22.7978,VALID,341,VALID,0,
2014-02-22, 01:43:04,VALID,1010.68,VALID,0,VALID,101.773,VALID,0,VALID,22.7766,VALID,341,VALID,0,
2014-02-22, 01:44:04,VALID,1010.68,VALID,0,VALID,102.025,VALID,0,VALID,22.7961,VALID,341,VALID,0,
2014-02-22, 01:45:04,VALID,1010.71,VALID,0,VALID,102.109,VALID,0,VALID,22.7961,VALID,341,VALID,0,
2014-02-22, 01:46:04,VALID,1010.71,VALID,0,VALID,102.17,VALID,0,VALID,22.7961,VALID,341,VALID,0,
2014-02-22, 01:47:04,VALID,1010.73,VALID,0,VALID,102.162,VALID,0,VALID,22.7766,VALID,341,VALID,0,
2014-02-22, 01:48:04,VALID,1010.72,VALID,0,VALID,102.261,VALID,0,VALID,22.7978,VALID,341,VALID,0,
2014-02-22, 01:49:04,VALID,1010.74,VALID,0,VALID,102.582,VALID,0,VALID,22.8173,VALID,341,VALID,0,
2014-02-22, 01:50:04,VALID,1010.76,VALID,0,VALID,102.765,VALID,0,VALID,22.8173,VALID,341,VALID,0,
2014-02-22, 01:51:04,VALID,1010.78,VALID,0,VALID,102.795,VALID,0,VALID,22.7978,VALID,341,VALID,0,
2014-02-22, 01:52:04,VALID,1010.77,VALID,0,VALID,102.795,VALID,0,VALID,22.7571,VALID,341,VALID,0,
2014-02-22, 01:53:04,VALID,1010.78,VALID,0,VALID,102.81,VALID,0,VALID,22.7571,VALID,341,VALID,0,
2014-02-22, 01:54:04,VALID,1010.76,VALID,0,VALID,102.894,VALID,0,VALID,22.7588,VALID,341,VALID,0,
2014-02-22, 01:55:04,VALID,1010.78,VALID,0,VALID,102.971,VALID,0,VALID,22.7394,VALID,341,VALID,0,
2014-02-22, 01:56:04,VALID,1010.74,VALID,0,VALID,103.093,VALID,0.112112,VALID,22.7394,VALID,341,VALID,0,
2014-02-22, 01:57:04,VALID,1010.77,VALID,0,VALID,103.344,VALID,0,VALID,22.7199,VALID,341,VALID,0,
2014-02-22, 01:58:04,VALID,1010.78,VALID,0,VALID,103.542,VALID,0,VALID,22.6987,VALID,341,VALID,0,
2014-02-22, 01:59:04,VALID,1010.77,VALID,0,VALID,103.588,VALID,0.112112,VALID,22.7004,VALID,341,VALID,0,
2014-02-22, 02:00:04,VALID,1010.77,VALID,0,VALID,103.581,VALID,0,VALID,22.6809,VALID,341,VALID,0,
2014-02-22, 02:01:04,VALID,1010.79,VALID,0,VALID,103.619,VALID,0,VALID,22.6614,VALID,341,VALID,0,
2014-02-22, 02:02:04,VALID,1010.78,VALID,0,VALID,103.71,VALID,0,VALID,22.6437,VALID,341,VALID,0,
2014-02-22, 02:03:04,VALID,1010.77,VALID,0,VALID,103.756,VALID,0,VALID,22.603,VALID,341,VALID,0,
2014-02-22, 02:04:04,VALID,1010.77,VALID,0,VALID,103.939,VALID,0,VALID,22.5835,VALID,341,VALID,0,
2014-02-22, 02:05:04,VALID,1010.74,VALID,0,VALID,104,VALID,0,VALID,22.5852,VALID,341,VALID,0,
2014-02-22, 02:06:04,VALID,1010.75,VALID,0,VALID,104,VALID,0,VALID,22.5446,VALID,341,VALID,0,
2014-02-22, 02:07:04,VALID,1010.73,VALID,0,VALID,104,VALID,0,VALID,22.5446,VALID,341,VALID,0,
2014-02-22, 02:08:04,VALID,1010.72,VALID,0,VALID,104,VALID,0,VALID,22.5658,VALID,341,VALID,0,
2014-02-22, 02:09:04,VALID,1010.72,VALID,0,VALID,104,VALID,0,VALID,22.5251,VALID,341,VALID,0,
2014-02-22, 02:10:04,VALID,1010.73,VALID,0,VALID,104,VALID,0,VALID,22.5658,VALID,341,VALID,0,
2014-02-22, 02:11:04,VALID,1010.72,VALID,0,VALID,104,VALID,0,VALID,22.564,VALID,341,VALID,0,
2014-02-22, 02:12:04,VALID,1010.73,VALID,0,VALID,104,VALID,0,VALID,22.5835,VALID,341,VALID,0,
2014-02-22, 02:13:04,VALID,1010.69,VALID,0,VALID,104,VALID,0,VALID,22.5835,VALID,341,VALID,0,
2014-02-22, 02:14:04,VALID,1010.7,VALID,0,VALID,104,VALID,0,VALID,22.564,VALID,341,VALID,0,
2014-02-22, 02:15:04,VALID,1010.7,VALID,0,VALID,104,VALID,0,VALID,22.564,VALID,341,VALID,0,
2014-02-22, 02:16:04,VALID,1010.7,VALID,0,VALID,104,VALID,0,VALID,22.5463,VALID,341,VALID,0,
2014-02-22, 02:17:04,VALID,1010.71,VALID,0,VALID,104,VALID,0.112112,VALID,22.5056,VALID,341,VALID,0,
2014-02-22, 02:18:04,VALID,1010.68,VALID,0,VALID,104,VALID,0.112112,VALID,22.5251,VALID,341,VALID,0,
2014-02-22, 02:19:04,VALID,1010.67,VALID,0,VALID,104,VALID,0,VALID,22.4844,VALID,341,VALID,0,
2014-02-22, 02:20:04,VALID,1010.69,VALID,0,VALID,104,VALID,0,VALID,22.465,VALID,341,VALID,0,
2014-02-22, 02:21:04,VALID,1010.68,VALID,0,VALID,104,VALID,0.112112,VALID,22.4455,VALID,341,VALID,0,
2014-02-22, 02:22:04,VALID,1010.67,VALID,0,VALID,104,VALID,0,VALID,22.426,VALID,341,VALID,0,
2014-02-22, 02:23:04,VALID,1010.64,VALID,0,VALID,104,VALID,0.112112,VALID,22.4667,VALID,341,VALID,0,
2014-02-22, 02:24:04,VALID,1010.66,VALID,0,VALID,104,VALID,0.112112,VALID,22.4844,VALID,341,VALID,0,
2014-02-22, 02:25:04,VALID,1010.61,VALID,0,VALID,104,VALID,0.112112,VALID,22.4844,VALID,341,VALID,0,
2014-02-22, 02:26:04,VALID,1010.59,VALID,0,VALID,104,VALID,0.112112,VALID,22.465,VALID,341,VALID,0,
2014-02-22, 02:27:04,VALID,1010.61,VALID,0,VALID,104,VALID,0.112112,VALID,22.4455,VALID,341,VALID,0,
2014-02-22, 02:28:04,VALID,1010.58,VALID,0,VALID,104,VALID,0.112112,VALID,22.426,VALID,341,VALID,0,
2014-02-22, 02:29:04,VALID,1010.6,VALID,0,VALID,104,VALID,0.112112,VALID,22.4065,VALID,341,VALID,0,
2014-02-22, 02:30:04,VALID,1010.58,VALID,0,VALID,104,VALID,0.112112,VALID,22.4065,VALID,341,VALID,0,
2014-02-22, 02:31:04,VALID,1010.59,VALID,0,VALID,104,VALID,0,VALID,22.426,VALID,341,VALID,0,
2014-02-22, 02:32:04,VALID,1010.58,VALID,0,VALID,104,VALID,0,VALID,22.4277,VALID,341,VALID,0,
2014-02-22, 02:33:04,VALID,1010.56,VALID,0,VALID,104,VALID,0,VALID,22.4472,VALID,341,VALID,0,
2014-02-22, 02:34:04,VALID,1010.57,VALID,0,VALID,104,VALID,0,VALID,22.4277,VALID,341,VALID,0,
2014-02-22, 02:35:04,VALID,1010.53,VALID,0,VALID,104,VALID,0,VALID,22.4277,VALID,341,VALID,0,
2014-02-22, 02:36:04,VALID,1010.53,VALID,0,VALID,104,VALID,0,VALID,22.4294,VALID,341,VALID,0,
2014-02-22, 02:37:04,VALID,1010.52,VALID,0,VALID,104,VALID,0,VALID,22.3887,VALID,341,VALID,0,
2014-02-22, 02:38:04,VALID,1010.55,VALID,0,VALID,104,VALID,0,VALID,22.3498,VALID,341,VALID,0,
2014-02-22, 02:39:04,VALID,1010.55,VALID,0,VALID,104,VALID,0,VALID,22.371,VALID,341,VALID,0,
2014-02-22, 02:40:04,VALID,1010.53,VALID,0,VALID,104,VALID,0,VALID,22.3303,VALID,341,VALID,0,
2014-02-22, 02:41:04,VALID,1010.56,VALID,0,VALID,104,VALID,0,VALID,22.3515,VALID,341,VALID,0,
2014-02-22, 02:42:04,VALID,1010.56,VALID,0,VALID,104,VALID,0,VALID,22.3108,VALID,341,VALID,0,
2014-02-22, 02:43:04,VALID,1010.55,VALID,0,VALID,104,VALID,0,VALID,22.3515,VALID,341,VALID,0,
2014-02-22, 02:44:04,VALID,1010.54,VALID,0,VALID,104,VALID,0,VALID,22.3303,VALID,341,VALID,0,
2014-02-22, 02:45:04,VALID,1010.54,VALID,0,VALID,104,VALID,0,VALID,22.3303,VALID,341,VALID,0,
2014-02-22, 02:46:04,VALID,1010.53,VALID,0,VALID,104,VALID,0,VALID,22.3515,VALID,341,VALID,0,
2014-02-22, 02:47:04,VALID,1010.52,VALID,0,VALID,104,VALID,0.112112,VALID,22.3286,VALID,341,VALID,0,
2014-02-22, 02:48:04,VALID,1010.53,VALID,0,VALID,104,VALID,0.112112,VALID,22.3693,VALID,341,VALID,0,
2014-02-22, 02:49:04,VALID,1010.51,VALID,0,VALID,104,VALID,0.112112,VALID,22.3676,VALID,341,VALID,0,
2014-02-22, 02:50:04,VALID,1010.55,VALID,0,VALID,104,VALID,0,VALID,22.3676,VALID,341,VALID,0,
2014-02-22, 02:51:04,VALID,1010.54,VALID,0,VALID,104,VALID,0.112112,VALID,22.3676,VALID,341,VALID,0,
2014-02-22, 02:52:04,VALID,1010.52,VALID,0,VALID,104,VALID,0.112112,VALID,22.3286,VALID,341,VALID,0,
2014-02-22, 02:53:04,VALID,1010.55,VALID,0,VALID,104,VALID,0.112112,VALID,22.3286,VALID,341,VALID,0,
2014-02-22, 02:54:04,VALID,1010.52,VALID,0,VALID,104,VALID,0,VALID,22.3091,VALID,341,VALID,0,
2014-02-22, 02:55:04,VALID,1010.52,VALID,0,VALID,104,VALID,0.112112,VALID,22.2897,VALID,341,VALID,0,
2014-02-22, 02:56:04,VALID,1010.5,VALID,0,VALID,104,VALID,0.112112,VALID,22.2897,VALID,341,VALID,0,
2014-02-22, 02:57:04,VALID,1010.45,VALID,0,VALID,104,VALID,0.112112,VALID,22.3091,VALID,341,VALID,0,
2014-02-22, 02:58:04,VALID,1010.46,VALID,0,VALID,104,VALID,0,VALID,22.3286,VALID,341,VALID,0,
2014-02-22, 02:59:04,VALID,1010.46,VALID,0,VALID,104,VALID,0.112112,VALID,22.3498,VALID,341,VALID,0,
2014-02-22, 03:00:04,VALID,1010.49,VALID,0,VALID,104,VALID,0,VALID,22.3303,VALID,341,VALID,0,
2014-02-22, 03:01:04,VALID,1010.5,VALID,0,VALID,104,VALID,0,VALID,22.2914,VALID,341,VALID,0,
2014-02-22, 03:02:04,VALID,1010.51,VALID,0,VALID,104,VALID,0.112112,VALID,22.2719,VALID,341,VALID,0,
2014-02-22, 03:03:04,VALID,1010.54,VALID,0,VALID,104,VALID,0,VALID,22.2524,VALID,341,VALID,0,
2014-02-22, 03:04:04,VALID,1010.53,VALID,0,VALID,104,VALID,0.112112,VALID,22.2312,VALID,341,VALID,0,
2014-02-22, 03:05:04,VALID,1010.53,VALID,0,VALID,104,VALID,0,VALID,22.2507,VALID,341,VALID,0,
2014-02-22, 03:06:04,VALID,1010.54,VALID,0,VALID,104,VALID,0,VALID,22.2719,VALID,341,VALID,0,
2014-02-22, 03:07:04,VALID,1010.52,VALID,0,VALID,104,VALID,0.112112,VALID,22.2312,VALID,341,VALID,0,
2014-02-22, 03:08:04,VALID,1010.59,VALID,0,VALID,104,VALID,0.112112,VALID,22.2524,VALID,341,VALID,0,
2014-02-22, 03:09:04,VALID,1010.55,VALID,0,VALID,104,VALID,0,VALID,22.2329,VALID,341,VALID,0,
2014-02-22, 03:10:04,VALID,1010.57,VALID,0,VALID,104,VALID,0.112112,VALID,22.2312,VALID,341,VALID,0,
2014-02-22, 03:11:04,VALID,1010.58,VALID,0,VALID,104,VALID,0,VALID,22.2312,VALID,341,VALID,0,
2014-02-22, 03:12:04,VALID,1010.57,VALID,0,VALID,104,VALID,0.112112,VALID,22.2524,VALID,341,VALID,0,
2014-02-22, 03:13:04,VALID,1010.56,VALID,0,VALID,104,VALID,0.112112,VALID,22.2312,VALID,341,VALID,0,
2014-02-22, 03:14:04,VALID,1010.56,VALID,0,VALID,104,VALID,0,VALID,22.2524,VALID,341,VALID,0,
2014-02-22, 03:15:04,VALID,1010.57,VALID,0,VALID,104,VALID,0.112112,VALID,22.2329,VALID,341,VALID,0,
2014-02-22, 03:16:04,VALID,1010.53,VALID,0,VALID,104,VALID,0.112112,VALID,22.2312,VALID,341,VALID,0,
2014-02-22, 03:17:04,VALID,1010.54,VALID,0,VALID,104,VALID,0,VALID,22.2134,VALID,341,VALID,0,
2014-02-22, 03:18:04,VALID,1010.53,VALID,0,VALID,104,VALID,0,VALID,22.1745,VALID,341,VALID,0,
2014-02-22, 03:19:04,VALID,1010.53,VALID,0,VALID,104,VALID,0,VALID,22.1339,VALID,341,VALID,0,
2014-02-22, 03:20:04,VALID,1010.54,VALID,0,VALID,104,VALID,0.112112,VALID,22.1339,VALID,341,VALID,0,
2014-02-22, 03:21:04,VALID,1010.54,VALID,0,VALID,104,VALID,0,VALID,22.1161,VALID,341,VALID,0,
2014-02-22, 03:22:04,VALID,1010.54,VALID,0,VALID,104,VALID,0,VALID,22.1144,VALID,341,VALID,0,
2014-02-22, 03:23:04,VALID,1010.54,VALID,0,VALID,104,VALID,0,VALID,22.1144,VALID,341,VALID,0,
2014-02-22, 03:24:04,VALID,1010.55,VALID,0,VALID,104,VALID,0,VALID,22.1144,VALID,341,VALID,0,
2014-02-22, 03:25:04,VALID,1010.58,VALID,0,VALID,104,VALID,0.112112,VALID,22.155,VALID,341,VALID,0,
2014-02-22, 03:26:04,VALID,1010.59,VALID,0,VALID,104,VALID,0.112112,VALID,22.155,VALID,341,VALID,0,
2014-02-22, 03:27:04,VALID,1010.6,VALID,0,VALID,104,VALID,0.112112,VALID,22.1355,VALID,341,VALID,0,
2014-02-22, 03:28:04,VALID,1010.64,VALID,0,VALID,104,VALID,0.112112,VALID,22.1355,VALID,341,VALID,0,
2014-02-22, 03:29:04,VALID,1010.61,VALID,0,VALID,104,VALID,0,VALID,22.0949,VALID,341,VALID,0,
2014-02-22, 03:30:04,VALID,1010.63,VALID,0,VALID,104,VALID,0,VALID,22.0966,VALID,341,VALID,0,
2014-02-22, 03:31:04,VALID,1010.6,VALID,0,VALID,104,VALID,0,VALID,22.0771,VALID,341,VALID,0,
2014-02-22, 03:32:04,VALID,1010.62,VALID,0,VALID,104,VALID,0.112112,VALID,22.0576,VALID,341,VALID,0,
2014-02-22, 03:33:04,VALID,1010.61,VALID,0,VALID,104,VALID,0.112112,VALID,21.9975,VALID,341,VALID,0,
2014-02-22, 03:34:04,VALID,1010.63,VALID,0,VALID,104,VALID,0,VALID,22.0187,VALID,341,VALID,0,
2014-02-22, 03:35:04,VALID,1010.66,VALID,0,VALID,104,VALID,0,VALID,21.9975,VALID,341,VALID,0,
2014-02-22, 03:36:04,VALID,1010.68,VALID,0,VALID,104,VALID,0,VALID,22.0187,VALID,341,VALID,0,
2014-02-22, 03:37:04,VALID,1010.63,VALID,0,VALID,104,VALID,0,VALID,21.9781,VALID,341,VALID,0,
2014-02-22, 03:38:04,VALID,1010.69,VALID,0,VALID,104,VALID,0,VALID,21.9586,VALID,341,VALID,0,
2014-02-22, 03:39:04,VALID,1010.67,VALID,0,VALID,104,VALID,0,VALID,21.9992,VALID,341,VALID,0,
2014-02-22, 03:40:04,VALID,1010.7,VALID,0,VALID,104,VALID,0.112112,VALID,21.9586,VALID,341,VALID,0,
2014-02-22, 03:41:04,VALID,1010.74,VALID,0,VALID,104,VALID,0,VALID,21.9992,VALID,341,VALID,0,
2014-02-22, 03:42:04,VALID,1010.71,VALID,0,VALID,104,VALID,0,VALID,21.9797,VALID,341,VALID,0,
2014-02-22, 03:43:04,VALID,1010.72,VALID,0,VALID,104,VALID,0,VALID,21.9391,VALID,341,VALID,0,
2014-02-22, 03:44:04,VALID,1010.72,VALID,0,VALID,104,VALID,0,VALID,21.9391,VALID,341,VALID,0,
2014-02-22, 03:45:04,VALID,1010.7,VALID,0,VALID,104,VALID,0,VALID,21.9603,VALID,341,VALID,0,
2014-02-22, 03:46:04,VALID,1010.7,VALID,0,VALID,104,VALID,0,VALID,21.9213,VALID,341,VALID,0,
2014-02-22, 03:47:04,VALID,1010.69,VALID,0,VALID,104,VALID,0.112112,VALID,21.9586,VALID,341,VALID,0,
2014-02-22, 03:48:04,VALID,1010.7,VALID,0,VALID,104,VALID,0.112112,VALID,21.9781,VALID,341,VALID,0,
2014-02-22, 03:49:04,VALID,1010.7,VALID,0,VALID,104,VALID,0,VALID,21.9992,VALID,341,VALID,0,
2014-02-22, 03:50:04,VALID,1010.71,VALID,0,VALID,104,VALID,0.112112,VALID,21.9975,VALID,341,VALID,0,
2014-02-22, 03:51:04,VALID,1010.7,VALID,0,VALID,104,VALID,0.112112,VALID,22.0382,VALID,341,VALID,0,
2014-02-22, 03:52:04,VALID,1010.7,VALID,0,VALID,104,VALID,0,VALID,22.0365,VALID,341,VALID,0,
2014-02-22, 03:53:04,VALID,1010.7,VALID,0,VALID,104,VALID,0.112112,VALID,22.0576,VALID,341,VALID,0,
2014-02-22, 03:54:04,VALID,1010.71,VALID,0,VALID,104,VALID,0,VALID,22.0771,VALID,341,VALID,0,
2014-02-22, 03:55:04,VALID,1010.69,VALID,0,VALID,104,VALID,0.112112,VALID,22.0966,VALID,341,VALID,0,
2014-02-22, 03:56:04,VALID,1010.66,VALID,0,VALID,104,VALID,0,VALID,22.056,VALID,341,VALID,0,
2014-02-22, 03:57:04,VALID,1010.69,VALID,0,VALID,104,VALID,0,VALID,22.0754,VALID,341,VALID,0,
2014-02-22, 03:58:04,VALID,1010.69,VALID,0,VALID,104,VALID,0,VALID,22.0966,VALID,341,VALID,0,
2014-02-22, 03:59:04,VALID,1010.69,VALID,0,VALID,104,VALID,0,VALID,22.0771,VALID,341,VALID,0,
2014-02-22, 04:00:04,VALID,1010.65,VALID,0,VALID,104,VALID,0.112112,VALID,22.0771,VALID,341,VALID,0,